Location: Chervonnoye
(48.6000°N, 34.4000°E)
Time: 19:39:12
(UTC+00:00)

RS-44 - Pass Details

Date: 01 December 2021
Orbit: 1175 x 1510 km, 82.5° (Epoch: 19 January)

Event Time Altitude Azimuth Distance (km) Brightness Sun altitude
Rises 04:13:57 0° 350° (N) 4,123 ? -9.5°
Reaches altitude 10° 04:16:34 10° 352° (N) 3,182 ? -9.1°
Maximum altitude 04:24:03 79° 79° (E) 1,301 ? -8.0°
Drops below altitude 10° 04:32:03 10° 167° (SSE) 3,388 ? -6.8°
Sets 04:34:55 0° 169° (SSE) 4,404 ? -6.4°
